| time (UTC) | temp F | wind direction | speed MPH | gust MPH | rain 1hr in | rain 24hr in | rain mn in | humidity % | barometer mb |
| 20260904054305 | 80 | 152 | 7.0 | 13.0 | 0.00 | 0.00 | 0.00 | 75 | 1011.7 |
| 20260904053305 | 80 | 147 | 5.0 | 12.0 | 0.00 | 0.00 | 0.00 | 75 | 1011.7 |
| 20260904051805 | 81 | 77 | 7.0 | 12.0 | 0.00 | 0.00 | 0.00 | 74 | 1011.7 |
| 20260904050925 | 81 | 155 | 7.0 | 12.0 | 0.00 | 0.00 | 0.00 | 73 | 1011.6 |
| 20260904050307 | 81 | 155 | 7.0 | 12.0 | 0.00 | 0.00 | 0.00 | 73 | 1011.6 |
| 20260904044805 | 81 | 149 | 8.0 | 12.0 | 0.00 | 0.00 | 0.00 | 72 | 1011.6 |
| 20260904044306 | 81 | 174 | 6.0 | 10.0 | 0.00 | 0.00 | 0.00 | 72 | 1011.6 |
| 20260904043305 | 81 | 83 | 7.0 | 15.0 | 0.00 | 0.00 | 0.00 | 72 | 1011.5 |
| 20260904042805 | 82 | 33 | 7.0 | 12.0 | 0.00 | 0.00 | 0.00 | 71 | 1011.5 |
| 20260904041805 | 82 | 79 | 9.0 | 15.0 | 0.00 | 0.00 | 0.00 | 70 | 1011.5 |
| 20260904040305 | 82 | 159 | 5.0 | 9.0 | 0.00 | 0.00 | 0.00 | 69 | 1011.7 |
| 20260904035306 | 82 | 163 | 5.0 | 12.0 | 0.00 | 0.00 | 0.00 | 69 | 1011.7 |
| 20260904034805 | 82 | 351 | 5.0 | 12.0 | 0.00 | 0.00 | 0.00 | 69 | 1011.7 |
| 20260904034304 | 82 | 167 | 7.0 | 12.0 | 0.00 | 0.00 | 0.00 | 68 | 1011.7 |
| 20260904033805 | 82 | 76 | 10.0 | 15.0 | 0.00 | 0.00 | 0.00 | 68 | 1011.7 |
| 20260904033305 | 82 | 159 | 8.0 | 15.0 | 0.00 | 0.00 | 0.00 | 67 | 1011.7 |
| 20260904032804 | 83 | 53 | 9.0 | 15.0 | 0.00 | 0.00 | 0.00 | 67 | 1011.7 |
| 20260904030805 | 83 | 133 | 8.0 | 15.0 | 0.00 | 0.00 | 0.00 | 68 | 1011.4 |
| 20260904030305 | 83 | 120 | 10.0 | 17.0 | 0.00 | 0.00 | 0.00 | 68 | 1011.4 |
| 20260904024804 | 83 | 155 | 6.0 | 12.0 | 0.00 | 0.00 | 0.00 | 71 | 1011.3 |
| 20260904024305 | 83 | 135 | 7.0 | 13.0 | 0.00 | 0.00 | 0.00 | 72 | 1011.3 |
| 20260904023805 | 83 | 102 | 7.0 | 13.0 | 0.00 | 0.00 | 0.00 | 71 | 1010.6 |
| 20260904023304 | 83 | 136 | 6.0 | 14.0 | 0.00 | 0.00 | 0.00 | 71 | 1010.6 |
| 20260904022805 | 83 | 128 | 9.0 | 15.0 | 0.00 | 0.00 | 0.00 | 70 | 1010.6 |
| 20260904022306 | 84 | 61 | 10.0 | 16.0 | 0.00 | 0.00 | 0.00 | 71 | 1010.6 |
| 20260904020805 | 84 | 104 | 8.0 | 18.0 | 0.00 | 0.00 | 0.00 | 71 | 1010.6 |
| 20260904015306 | 84 | 136 | 6.0 | 17.0 | 0.00 | 0.00 | 0.00 | 70 | 1010.4 |
| 20260904014804 | 85 | 182 | 10.0 | 18.0 | 0.00 | 0.00 | 0.00 | 70 | 1010.4 |
| 20260904013804 | 85 | 153 | 4.0 | 9.0 | 0.00 | 0.00 | 0.00 | 69 | 1010.2 |
| 20260904013304 | 85 | 145 | 3.0 | 12.0 | 0.00 | 0.00 | 0.00 | 68 | 1010.2 |
| 20260904012804 | 85 | 145 | 7.0 | 13.0 | 0.00 | 0.00 | 0.00 | 68 | 1010.2 |
| 20260904011804 | 85 | 153 | 6.0 | 12.0 | 0.00 | 0.00 | 0.00 | 67 | 1010.0 |
| 20260904011304 | 85 | 146 | 6.0 | 12.0 | 0.00 | 0.00 | 0.00 | 67 | 1010.0 |
| 20260904010804 | 85 | 17 | 7.0 | 12.0 | 0.00 | 0.00 | 0.00 | 66 | 1010.0 |
| 20260904005804 | 86 | 127 | 8.0 | 17.0 | 0.00 | 0.00 | 0.00 | 65 | 1010.0 |
| 20260904005306 | 86 | 130 | 9.0 | 15.0 | 0.00 | 0.00 | 0.00 | 65 | 1010.0 |
| 20260904004804 | 86 | 131 | 9.0 | 14.0 | 0.00 | 0.00 | 0.00 | 65 | 1010.0 |
| 20260904003804 | 86 | 130 | 8.0 | 18.0 | 0.00 | 0.00 | 0.00 | 66 | 1009.8 |
| 20260904001309 | 87 | 148 | 9.0 | 18.0 | 0.00 | 0.00 | 0.00 | 66 | 1009.9 |
| 20260904000310 | 88 | 121 | 8.0 | 14.0 | 0.00 | 0.00 | 0.00 | 66 | 1009.9 |
| 20260903234308 | 89 | 118 | 7.0 | 15.0 | 0.00 | 0.00 | 0.00 | 63 | 1009.4 |
| 20260903232308 | 90 | 141 | 7.0 | 12.0 | 0.00 | 0.00 | 0.00 | 61 | 1009.5 |
| 20260903231808 | 90 | 64 | 9.0 | 15.0 | 0.00 | 0.00 | 0.00 | 61 | 1009.5 |
| 20260903231308 | 90 | 128 | 5.0 | 13.0 | 0.00 | 0.00 | 0.00 | 61 | 1009.5 |
| 20260903230808 | 90 | 120 | 7.0 | 13.0 | 0.00 | 0.00 | 0.00 | 60 | 1009.5 |
| 20260903225808 | 90 | 66 | 9.0 | 13.0 | 0.00 | 0.00 | 0.00 | 60 | 1009.4 |
| 20260903224808 | 90 | 101 | 10.0 | 16.0 | 0.00 | 0.00 | 0.00 | 60 | 1009.4 |
| 20260903223308 | 91 | 142 | 4.0 | 10.0 | 0.00 | 0.00 | 0.00 | 60 | 1009.5 |
| 20260903222308 | 91 | 124 | 7.0 | 13.0 | 0.00 | 0.00 | 0.00 | 60 | 1009.4 |
| 20260903221308 | 91 | 153 | 6.0 | 12.0 | 0.00 | 0.00 | 0.00 | 61 | 1009.4 |
| 20260903220308 | 91 | 97 | 8.0 | 15.0 | 0.00 | 0.00 | 0.00 | 61 | 1009.4 |
| 20260903214808 | 90 | 96 | 5.0 | 12.0 | 0.00 | 0.00 | 0.00 | 62 | 1009.6 |
| 20260903213808 | 90 | 46 | 8.0 | 17.0 | 0.00 | 0.00 | 0.00 | 63 | 1009.7 |
| 20260903212307 | 90 | 96 | 9.0 | 15.0 | 0.00 | 0.00 | 0.00 | 63 | 1009.8 |
| 20260903205308 | 90 | 159 | 7.0 | 15.0 | 0.00 | 0.00 | 0.00 | 64 | 1010.2 |
| 20260903204808 | 90 | 131 | 9.0 | 15.0 | 0.00 | 0.00 | 0.00 | 64 | 1010.3 |
| 20260903204308 | 89 | 74 | 10.0 | 17.0 | 0.00 | 0.00 | 0.00 | 64 | 1010.3 |
| 20260903203308 | 89 | 142 | 6.0 | 13.0 | 0.00 | 0.00 | 0.00 | 66 | 1010.4 |
| 20260903202808 | 88 | 8 | 8.0 | 14.0 | 0.00 | 0.00 | 0.00 | 67 | 1010.6 |
| 20260903202308 | 88 | 138 | 7.0 | 17.0 | 0.00 | 0.00 | 0.00 | 68 | 1010.6 |
| 20260903201807 | 87 | 116 | 10.0 | 18.0 | 0.00 | 0.00 | 0.00 | 69 | 1010.6 |
| 20260903200308 | 87 | 95 | 7.0 | 15.0 | 0.00 | 0.00 | 0.00 | 68 | 1010.6 |
| 20260903195308 | 87 | 3 | 8.0 | 17.0 | 0.00 | 0.00 | 0.00 | 68 | 1010.8 |
| 20260903194308 | 88 | 138 | 10.0 | 16.0 | 0.00 | 0.00 | 0.00 | 67 | 1010.8 |
| 20260903193808 | 88 | 106 | 8.0 | 15.0 | 0.00 | 0.00 | 0.00 | 68 | 1010.8 |
| 20260903192308 | 87 | 176 | 9.0 | 15.0 | 0.00 | 0.00 | 0.00 | 70 | 1011.1 |
| 20260903191308 | 87 | 181 | 9.0 | 17.0 | 0.00 | 0.00 | 0.00 | 69 | 1011.1 |
| 20260903185808 | 86 | 200 | 8.0 | 20.0 | 0.00 | 0.00 | 0.00 | 71 | 1011.4 |
| 20260903184808 | 86 | 284 | 12.0 | 20.0 | 0.00 | 0.00 | 0.00 | 72 | 1011.4 |
| 20260903175807 | 83 | 149 | 9.0 | 17.0 | 0.00 | 0.00 | 0.00 | 78 | 1012.1 |
| 20260903172307 | 83 | 152 | 7.0 | 13.0 | 0.00 | 0.00 | 0.00 | 79 | 1012.2 |
| 20260903170307 | 83 | 120 | 10.0 | 15.0 | 0.00 | 0.00 | 0.00 | 80 | 1012.4 |
| 20260903165307 | 83 | 125 | 6.0 | 12.0 | 0.00 | 0.00 | 0.00 | 81 | 1012.2 |
| 20260903163307 | 83 | 40 | 7.0 | 13.0 | 0.00 | 0.00 | 0.00 | 81 | 1012.4 |
| 20260903162307 | 82 | 149 | 6.0 | 13.0 | 0.00 | 0.00 | 0.00 | 83 | 1012.2 |
| 20260903160807 | 81 | 184 | 6.0 | 12.0 | 0.00 | 0.00 | 0.00 | 84 | 1012.3 |
| 20260903160307 | 81 | 137 | 5.0 | 12.0 | 0.00 | 0.00 | 0.00 | 84 | 1012.2 |
| 20260903155807 | 81 | 160 | 5.0 | 12.0 | 0.00 | 0.00 | 0.00 | 85 | 1012.2 |
| 20260903155307 | 81 | 145 | 6.0 | 10.0 | 0.00 | 0.00 | 0.00 | 85 | 1012.2 |
| 20260903154807 | 81 | 156 | 5.0 | 9.0 | 0.00 | 0.00 | 0.00 | 85 | 1012.2 |
| 20260903153807 | 81 | 163 | 7.0 | 12.0 | 0.00 | 0.00 | 0.00 | 85 | 1012.2 |
| 20260903151807 | 80 | 147 | 6.0 | 12.0 | 0.00 | 0.00 | 0.00 | 85 | 1012.2 |
| 20260903151307 | 80 | 132 | 4.0 | 10.0 | 0.00 | 0.00 | 0.00 | 86 | 1012.2 |
| 20260903150307 | 80 | 136 | 6.0 | 13.0 | 0.00 | 0.00 | 0.00 | 86 | 1012.2 |
| 20260903145806 | 80 | 117 | 6.0 | 12.0 | 0.00 | 0.00 | 0.00 | 86 | 1012.2 |
| 20260903144807 | 80 | 156 | 3.0 | 12.0 | 0.00 | 0.00 | 0.00 | 87 | 1012.2 |
| 20260903144306 | 80 | 140 | 8.0 | 14.0 | 0.00 | 0.00 | 0.00 | 86 | 1012.2 |
| 20260903143307 | 79 | 152 | 7.0 | 12.0 | 0.00 | 0.00 | 0.00 | 87 | 1012.4 |
| 20260903142307 | 79 | 140 | 5.0 | 12.0 | 0.00 | 0.00 | 0.00 | 88 | 1012.4 |
| 20260903141807 | 79 | 219 | 5.0 | 17.0 | 0.00 | 0.00 | 0.00 | 88 | 1012.4 |
| 20260903140807 | 78 | 120 | 8.0 | 12.0 | 0.00 | 0.00 | 0.00 | 89 | 1012.3 |
| 20260903135807 | 78 | 171 | 6.0 | 10.0 | 0.00 | 0.00 | 0.00 | 89 | 1012.3 |
| 20260903135307 | 78 | 132 | 6.0 | 12.0 | 0.00 | 0.00 | 0.00 | 89 | 1012.3 |
| 20260903134807 | 78 | 139 | 6.0 | 12.0 | 0.00 | 0.00 | 0.00 | 89 | 1012.3 |
| 20260903134306 | 78 | 123 | 6.0 | 12.0 | 0.00 | 0.00 | 0.00 | 89 | 1012.3 |
| 20260903130807 | 78 | 146 | 6.0 | 9.0 | 0.00 | 0.00 | 0.00 | 90 | 1011.9 |
| 20260903125806 | 77 | 136 | 5.0 | 9.0 | 0.00 | 0.00 | 0.00 | 90 | 1011.9 |
| 20260903125306 | 77 | 158 | 3.0 | 10.0 | 0.00 | 0.00 | 0.00 | 90 | 1011.9 |
| 20260903124806 | 77 | 131 | 5.0 | 12.0 | 0.00 | 0.00 | 0.00 | 90 | 1011.7 |
| 20260903124307 | 77 | 142 | 5.0 | 10.0 | 0.00 | 0.00 | 0.00 | 90 | 1011.7 |
| 20260903123306 | 77 | 144 | 5.0 | 9.0 | 0.00 | 0.00 | 0.00 | 90 | 1011.7 |
| 20260903122806 | 77 | 125 | 5.0 | 8.0 | 0.00 | 0.00 | 0.00 | 90 | 1011.7 |
| 20260903121807 | 77 | 119 | 2.0 | 5.0 | 0.00 | 0.00 | 0.00 | 90 | 1011.7 |
| 20260903121307 | 77 | 104 | 4.0 | 6.0 | 0.00 | 0.00 | 0.00 | 90 | 1011.7 |
| 20260903120306 | 77 | 142 | 3.0 | 5.0 | 0.00 | 0.00 | 0.00 | 90 | 1011.4 |
| 20260903115306 | 76 | 164 | 3.0 | 6.0 | 0.00 | 0.00 | 0.00 | 90 | 1011.4 |
| 20260903114806 | 76 | 158 | 5.0 | 8.0 | 0.00 | 0.00 | 0.00 | 90 | 1011.5 |
| 20260903113806 | 76 | 155 | 3.0 | 7.0 | 0.00 | 0.00 | 0.00 | 90 | 1011.5 |
| 20260903113306 | 76 | 149 | 2.0 | 6.0 | 0.00 | 0.00 | 0.00 | 89 | 1011.4 |
| 20260903112306 | 77 | 154 | 3.0 | 9.0 | 0.00 | 0.00 | 0.00 | 89 | 1011.5 |
| 20260903110806 | 77 | 142 | 2.0 | 7.0 | 0.00 | 0.00 | 0.00 | 89 | 1011.3 |
| 20260903104806 | 77 | 140 | 5.0 | 9.0 | 0.00 | 0.00 | 0.00 | 91 | 1011.2 |
| 20260903103806 | 77 | 147 | 4.0 | 8.0 | 0.00 | 0.00 | 0.00 | 92 | 1011.0 |
| 20260903102806 | 76 | 143 | 1.0 | 5.0 | 0.00 | 0.00 | 0.00 | 92 | 1011.0 |
| 20260903102306 | 76 | 153 | 0.0 | 2.0 | 0.00 | 0.00 | 0.00 | 92 | 1011.0 |
| 20260903101806 | 76 | 153 | 1.0 | 2.0 | 0.00 | 0.00 | 0.00 | 92 | 1011.0 |
| 20260903101306 | 76 | 153 | 0.0 | 3.0 | 0.00 | 0.00 | 0.00 | 93 | 1011.1 |
| 20260903100306 | 76 | 153 | 2.0 | 5.0 | 0.00 | 0.00 | 0.00 | 93 | 1011.1 |
| 20260903093806 | 76 | 140 | 2.0 | 6.0 | 0.00 | 0.00 | 0.00 | 92 | 1011.2 |
| 20260903093306 | 76 | 126 | 2.0 | 6.0 | 0.00 | 0.00 | 0.00 | 92 | 1011.2 |
| 20260903092805 | 76 | 120 | 2.0 | 3.0 | 0.00 | 0.00 | 0.00 | 92 | 1011.2 |
| 20260903091306 | 76 | 113 | 1.0 | 3.0 | 0.00 | 0.00 | 0.00 | 92 | 1011.1 |
| 20260903084805 | 76 | 80 | 2.0 | 6.0 | 0.00 | 0.00 | 0.00 | 91 | 1011.2 |
| 20260903083306 | 77 | 125 | 3.0 | 6.0 | 0.00 | 0.00 | 0.00 | 89 | 1011.2 |
| 20260903082805 | 77 | 120 | 5.0 | 8.0 | 0.00 | 0.00 | 0.00 | 88 | 1011.2 |
| 20260903082306 | 77 | 124 | 2.0 | 7.0 | 0.00 | 0.00 | 0.00 | 88 | 1011.2 |
| 20260903081806 | 78 | 112 | 5.0 | 9.0 | 0.00 | 0.00 | 0.00 | 87 | 1011.2 |
| 20260903075306 | 79 | 99 | 6.0 | 13.0 | 0.00 | 0.00 | 0.00 | 82 | 1011.0 |
| 20260903074805 | 79 | 119 | 6.0 | 14.0 | 0.00 | 0.00 | 0.00 | 82 | 1010.9 |
| 20260903074305 | 79 | 108 | 7.0 | 14.0 | 0.00 | 0.00 | 0.00 | 81 | 1010.9 |
| 20260903073806 | 80 | 143 | 3.0 | 7.0 | 0.00 | 0.00 | 0.00 | 81 | 1010.9 |
| 20260903072307 | 80 | 74 | 4.0 | 9.0 | 0.00 | 0.00 | 0.00 | 80 | 1011.2 |
| 20260903065805 | 80 | 99 | 5.0 | 9.0 | 0.00 | 0.00 | 0.00 | 80 | 1011.0 |
| 20260903065306 | 80 | 109 | 3.0 | 12.0 | 0.00 | 0.00 | 0.00 | 80 | 1011.0 |
| 20260903063805 | 80 | 113 | 5.0 | 12.0 | 0.00 | 0.00 | 0.00 | 80 | 1011.1 |
| 20260903063305 | 80 | 121 | 5.0 | 12.0 | 0.00 | 0.00 | 0.00 | 79 | 1011.2 |
| 20260903062805 | 80 | 109 | 6.0 | 15.0 | 0.00 | 0.00 | 0.00 | 79 | 1011.2 |
| 20260903062306 | 80 | 138 | 5.0 | 14.0 | 0.00 | 0.00 | 0.00 | 79 | 1011.5 |
| 20260903061805 | 80 | 102 | 6.0 | 13.0 | 0.00 | 0.00 | 0.00 | 79 | 1011.5 |
| 20260903061305 | 80 | 113 | 7.0 | 13.0 | 0.00 | 0.00 | 0.00 | 78 | 1011.5 |
| 20260903055306 | 80 | 105 | 6.0 | 14.0 | 0.00 | 0.00 | 0.00 | 77 | 1011.5 |
| 20260903054805 | 80 | 91 | 9.0 | 14.0 | 0.00 | 0.00 | 0.00 | 77 | 1011.5 |